Tracking 18673 objects as of 26-June-2017
HD Live streaming from Space Station
objects crossing your sky now

EUTE 7A (EUTE W3A)

Track EUTE 7A (EUTE W3A) now!
EUTE 7A (EUTE W3A) is classified as:


NORAD ID: 28187
Int'l Code: 2004-008A
Perigee: 35,775.2 km
Apogee: 35,813.0 km
Inclination: 0.1 °
Period: 1,436.1 minutes
Semi major axis: 42165 km
RCS: 29.9526 m2 (large)
Launch date: March 15, 2004
Source: European Telecommunications Satellite Organization (EUTE)
Launch site: TYURATAM MISSILE AND SPACE COMPLEX (TTMTR)

58 Ku-band transponders; covers whole of sub-Saharan Africa and provides connectivity to Europe and Middle East.
Your satellite tracking list
Your tracking list is empty





NASA's NSSDC Master Catalog

Two Line Element Set (TLE):
1 28187U 04008A   17177.09771448 +.00000030 +00000-0 +00000-0 0  9994
2 28187 000.0613 003.1857 0004485 113.2840 200.1049 01.00270527048510
Source of the keplerian elements: AFSPC